Sandy Bay Yacht Club
Weather Center


NOAA NWS Hourly Roundups by Site

NOAA NWS Hourly Roundups by Site

Regional Weather Roundup for Boston, MA

To Select Another Site Choose from List
Select Site:  

000
ASUS41 KBOX 170204
RWRBOX

REGIONAL WEATHER ROUNDUP
NATIONAL WEATHER SERVICE BOSTON/NORTON MA
900 PM EST SAT JAN 16 2021

NOTE:  "FAIR" INDICATES FEW OR NO CLOUDS BELOW 12,000 FEET WITH NO
SIGNIFICANT WEATHER AND/OR OBSTRUCTIONS TO VISIBILITY.

MAZALL-170300-
EASTERN MASSACHUSETTS

CITY           SKY/WX    TMP DP  RH WIND       PRES   REMARKS
BOSTON         MOCLDY    39  32  75 W16       29.26S WCI  30
BEVERLY        PTCLDY    41  34  76 W16       29.23S
LAWRENCE       NOT AVBL
BEDFORD        PTCLDY    39  32  76 SW9       29.24F
BLUE HILL        N/A     37  31  78 W16G25    29.22F WCI  28
NORWOOD        PTCLDY    41  31  67 W9        29.26F
MARSHFIELD     MOCLDY    43  39  87 VRB6G13   29.25F
PLYMOUTH       PTCLDY    40  36  86 SW10      29.26F
TAUNTON        PTCLDY    43  36  76 SW6       29.27F
NEW BEDFORD    PTCLDY    41  37  86 SW8       29.28F
$$

MAZALL-170300-
CAPE COD AND THE ISLANDS

CITY           SKY/WX    TMP DP  RH WIND       PRES   REMARKS
FALMOUTH       CLEAR     41  39  93 SW167     29.28S WCI  24
HYANNIS        PTCLDY    42  38  85 SW12      29.26F
CHATHAM        CLEAR     42  38  85 SW8       29.28F
NANTUCKET      PTCLDY    43  41  93 SW13      29.31F FOG
MARTHAS VNYRD  CLEAR     42  38  85 SW9       29.30S
$$

MAZALL-170300-
CENTRAL AND WESTERN MASSACHUSETTS

CITY           SKY/WX    TMP DP  RH WIND       PRES   REMARKS
WORCESTER      MOCLDY    35  29  78 W15       29.24F WCI  25
FITCHBURG      MOCLDY    38  33  82 W10G20    29.26S WCI  31
ORANGE         MIX PCPN  37  30  75 SW9       29.27S WCI  30
SPRINGFIELD    CLOUDY    37  29  72 W10       29.30S WCI  30
WESTFIELD      MOCLDY    36  29  75 W12G17    29.31S WCI  28
NORTH ADAMS    LGT SNOW  34  30  85 W10       29.30S FOG     WCI  26
PITTSFIELD     LGT SNOW  31  28  89 SW13      29.29R FOG     WCI  21
$$

RIZALL-170300-
RHODE ISLAND

CITY           SKY/WX    TMP DP  RH WIND       PRES   REMARKS
PROVIDENCE     LGT RAIN  39  36  89 W12       29.29F WCI  32
NEWPORT        MOCLDY    41  37  86 W7        29.29F
BLOCK ISLAND   PTCLDY    40  34  79 W21G29    29.33S WCI  30
SMITHFIELD     PTCLDY    37  33  85 W14G20    29.27F WCI  28
WESTERLY       CLOUDY    37  33  85 VRB6      29.32F
$$

CTZALL-170300-
CONNECTICUT

CITY           SKY/WX    TMP DP  RH WIND       PRES   REMARKS
BRADLEY INTL   MOCLDY    37  28  70 W14       29.33S WCI  28
HARTFORD       CLOUDY    39  29  67 W7        29.35F
BRIDGEPORT     PTCLDY    38  26  62 W8        29.39R
DANBURY        CLEAR     35  24  64 W8        29.39S WCI  29
GROTON         CLOUDY    40  33  76 W12       29.34R
NEW HAVEN      PTCLDY    40  30  67 W6        29.37S
CHESTER        CLOUDY    39  36  87 W7        29.34S
MERIDEN        CLOUDY    38  31  76 W7        29.37R
WILLIMANTIC    CLOUDY    38  31  76 W8        29.33S
OXFORD         CLOUDY    34  31  88 W12       29.36S WCI  25
$$

MEZ002-015-021-024-NHZ003-005-008-011-012-014-VTZ005-008-170300-
NORTHERN NEW ENGLAND

CITY           SKY/WX    TMP DP  RH WIND       PRES   REMARKS
PORTLAND ME    CLOUDY    42  41  96 SW8G18    29.16S
BANGOR ME      FLURRIES  42  39  89 SE10      29.17F
CONCORD NH     CLOUDY    37  34  89 SW7       29.20F WCI  32
MANCHESTER NH  MOCLDY    39  32  76 SW8G17    29.21F
NASHUA NH      MOCLDY    38  35  89 W7        29.24F
PORTSMOUTH NH  MOCLDY    41  35  79 SW9       29.19S
JAFFREY NH     CLOUDY    35  30  82 SW7       29.22F WCI  29
KEENE NH       CLOUDY    35  32  88 S5        29.25S WCI  31
BURLINGTON VT  SNOW      33  32  96 CALM      29.22F VSB 1/2
MT. WASHINGTON SNOW      23  23 100 SW15        N/A  VSB 1/8 WCI  10
$$

NYZ052-076-170300-
EASTERN NEW YORK

CITY           SKY/WX    TMP DP  RH WIND       PRES   REMARKS
ALBANY         CLOUDY    33  27  78 SW12      29.33S WCI  24
NEW YORK CITY  MOCLDY    42  26  53 W16G24    29.43S
$$

ANZALL-170300-
MARINE OBSERVATIONS

STATION/POSITION TIME  TEMP    WIND        PRES    VSBY  WAVE
                       AIR SEA DIR/SP/G                  HT/PER
                 (UTC) (F)     (DEG/KT/KT) (MB)    (MI)  (FT/S)
BOSTON BUOY      0150   43 44  240/ 21/ 27  991.0S         8/10
BUZZARDS BAY     0100          250/ 22/ 24  993.0F
NANTUCKET SOUND  0150      41  240/ 14/ 17   N/A           2/ 3
MASS BAY-STELLWA 0104   44     240/ 16/ 19  988.8F  1 7/8 10/11
ISLE OF SHOALS   0100   43     240/ 19/ 22  988.8F
S OF BLOCK IS    0126      47                N/A          13/12
$$

......................KEY.........................
  SKY/WX - SKY CONDITION/PRESENT WEATHER
  TMP    - TEMPERATURE IN FAHRENHEIT
  DWPT   - DEWPOINT IN FAHRENHEIT
  RH     - RELATIVE HUMIDITY IN PERCENT
  WIND   - DIRECTION AND SPEED IN MPH
  PRES   - MEAN SEA LEVEL PRESSURE IN INCHES OF HG
  WCI    - WIND CHILL INDEX
  VSB    - VISIBILITY IN MILES
  HX     - HEAT INDEX
  TC     - TEMPERATURE IN CELSIUS
  VRB    - VARIABLE WIND DIRECTION
  N/A    - NOT AVAILABLE


 

View Past Reports for Boston, MA.

Products Courtesy of NOAA-NWS
NWS Information Parsing Script by Ken True at Saratoga Weather - Script by SE Lincoln Weather.

 



home

Copyright © Sandy Bay Yacht Club. All rights reserved.